Tracking 23612 objects as of 17-Sep-2021
HD Live streaming from Space Station
objects crossing your sky now
Track INSPIRATION-4

SL-16 R/B

Track SL-16 R/B now!
10-day predictions
SL-16 R/B is classified as:


NORAD ID: 25400
Int'l Code: 1998-043G
Perigee: 806.1 km
Apogee: 822.0 km
Inclination: 98.6 °
Period: 101.0 minutes
Semi major axis: 7185 km
RCS: 12.0301 m2 (large)
Launch date: July 10, 1998
Source: Commonwealth of Independent States (former USSR) (CIS)
Launch site: TYURATAM MISSILE AND SPACE COMPLEX (TTMTR)

Note: This is a ROCKET BODY
aabbcc
Your satellite tracking list
Your tracking list is empty




NASA's NSSDC Master Catalog

Two Line Element Set (TLE):
1 25400U 98043G   21259.89308328 -.00000013  00000-0  13068-4 0  9992
2 25400  98.6427 194.4078 0011062  85.6043 274.6401 14.25482381206042
Source of the keplerian elements: AFSPC